MXD1004 WMKK-WBKK

Flight info

Callsign MXD1004
Flight time 2h 9m
Altitude 33000
Route KIMAT2E KIMAT Y344 VPK M758 LUSMO/N0475F350 M758 VIDIP DCT EGENU
Aircraft B738/M-SDE2E3FGHIRWXY/LB1

Departure

Time 2026-05-04 15:07
Airport Kuala Lumpur International Airport (WMKK)

Arrival

Time 2026-05-04 17:16
Airport Kota Kinabalu International Airport (WBKK)
Time Latitude Longitude Altitude Speed Heading
2026-05-04 14:33 2.75434 101.70901 75 ft 0 kts 326°
2026-05-04 14:57 2.75423 101.70909 75 ft 2 kts 326°
2026-05-04 14:57 2.75411 101.70917 75 ft 2 kts 326°
2026-05-04 14:57 2.75399 101.70925 75 ft 2 kts 326°
2026-05-04 14:58 2.75385 101.70931 75 ft 2 kts 352°
2026-05-04 14:58 2.75371 101.70931 75 ft 2 kts 13°
2026-05-04 14:58 2.75357 101.70925 75 ft 2 kts 35°
2026-05-04 14:58 2.75348 101.70917 75 ft 0 kts 53°
2026-05-04 14:59 2.75344 101.70911 75 ft 1 kts 57°
2026-05-04 15:02 2.75360 101.70936 75 ft 10 kts 56°
2026-05-04 15:02 2.75412 101.71013 75 ft 16 kts 56°
2026-05-04 15:02 2.75481 101.71114 75 ft 17 kts 56°
2026-05-04 15:03 2.75542 101.71205 75 ft 14 kts 56°
2026-05-04 15:03 2.75597 101.71286 75 ft 13 kts 56°
2026-05-04 15:03 2.75645 101.71358 75 ft 11 kts 57°
2026-05-04 15:03 2.75639 101.71435 75 ft 14 kts 137°
2026-05-04 15:04 2.75548 101.71498 75 ft 18 kts 147°
2026-05-04 15:04 2.75431 101.71575 75 ft 21 kts 146°
2026-05-04 15:04 2.75300 101.71663 75 ft 24 kts 146°
2026-05-04 15:04 2.75155 101.71761 75 ft 24 kts 143°
2026-05-04 15:05 2.75034 101.71843 75 ft 18 kts 146°
2026-05-04 15:05 2.75001 101.71921 75 ft 9 kts 59°
2026-05-04 15:05 2.75010 101.71934 75 ft 0 kts 55°
2026-05-04 15:05 2.75013 101.71938 75 ft 4 kts 55°
2026-05-04 15:06 2.75056 101.71999 75 ft 12 kts 51°
2026-05-04 15:06 2.75126 101.72014 75 ft 10 kts 333°
2026-05-04 15:06 2.75157 101.71995 75 ft 0 kts 326°
2026-05-04 15:07 2.75322 101.71883 75 ft 67 kts 326°
2026-05-04 15:07 2.75921 101.71483 75 ft 137 kts 325°
2026-05-04 15:07 2.76874 101.70857 195 ft 183 kts 326°
2026-05-04 15:07 2.77959 101.70152 887 ft 191 kts 323°
2026-05-04 15:08 2.79035 101.69396 1654 ft 189 kts 323°
2026-05-04 15:08 2.80191 101.68664 2061 ft 205 kts 334°
2026-05-04 15:08 2.81602 101.68234 2434 ft 225 kts 343°
2026-05-04 15:08 2.83187 101.67729 2913 ft 245 kts 339°
2026-05-04 15:09 2.84819 101.67157 3622 ft 257 kts 339°
2026-05-04 15:09 2.86538 101.66545 4359 ft 268 kts 339°
2026-05-04 15:09 2.88299 101.65913 5240 ft 273 kts 338°
2026-05-04 15:10 2.92034 101.65415 6958 ft 285 kts 13°
2026-05-04 15:10 2.93238 101.65880 7510 ft 289 kts 26°
2026-05-04 15:10 2.97339 101.68256 9452 ft 297 kts 27°
2026-05-04 15:11 2.99119 101.69319 10245 ft 302 kts 33°
2026-05-04 15:11 3.00580 101.70913 10691 ft 324 kts 59°
2026-05-04 15:11 3.01294 101.73128 10902 ft 349 kts 78°
2026-05-04 15:11 3.01740 101.75555 11468 ft 360 kts 77°
2026-05-04 15:12 3.02295 101.78019 12165 ft 367 kts 75°
2026-05-04 15:12 3.02883 101.80492 12876 ft 372 kts 75°
2026-05-04 15:12 3.03489 101.83031 13604 ft 377 kts 75°
2026-05-04 15:12 3.04106 101.85594 14327 ft 382 kts 75°
2026-05-04 15:13 3.04735 101.88179 15044 ft 386 kts 76°
2026-05-04 15:13 3.05157 101.89909 15515 ft 388 kts 76°
2026-05-04 15:13 3.05802 101.92550 16205 ft 392 kts 76°
2026-05-04 15:13 3.06671 101.96100 17111 ft 397 kts 76°
2026-05-04 15:14 3.07328 101.98782 17770 ft 400 kts 76°
2026-05-04 15:14 3.07772 102.00594 18205 ft 402 kts 77°
2026-05-04 15:14 3.08663 102.04227 19058 ft 406 kts 77°
2026-05-04 15:14 3.09338 102.06985 19686 ft 409 kts 77°
2026-05-04 15:15 3.10010 102.09724 20292 ft 412 kts 77°
2026-05-04 15:15 3.10700 102.12540 20885 ft 415 kts 77°
2026-05-04 15:15 3.11378 102.15305 21453 ft 417 kts 78°
2026-05-04 15:16 3.12770 102.20983 22606 ft 421 kts 78°
2026-05-04 15:16 3.13466 102.23824 23142 ft 423 kts 78°
2026-05-04 15:16 3.14871 102.29556 23926 ft 432 kts 78°
2026-05-04 15:17 3.15580 102.32452 23909 ft 430 kts 78°
2026-05-04 15:17 3.16937 102.38236 23912 ft 423 kts 80°
2026-05-04 15:17 3.17523 102.41104 23912 ft 425 kts 81°
2026-05-04 15:18 3.18117 102.43980 23958 ft 428 kts 80°
2026-05-04 15:18 3.18734 102.46907 24514 ft 428 kts 80°
2026-05-04 15:18 3.19345 102.49805 25012 ft 430 kts 80°
2026-05-04 15:19 3.20582 102.55685 25963 ft 434 kts 80°
2026-05-04 15:19 3.21200 102.58615 26414 ft 436 kts 80°
2026-05-04 15:19 3.22454 102.64561 27281 ft 439 kts 80°
2026-05-04 15:20 3.23093 102.67587 27710 ft 441 kts 80°
2026-05-04 15:20 3.23720 102.70560 28111 ft 443 kts 80°
2026-05-04 15:20 3.24354 102.73566 28509 ft 444 kts 80°
2026-05-04 15:20 3.24999 102.76623 28895 ft 446 kts 80°
2026-05-04 15:21 3.25636 102.79645 29273 ft 448 kts 80°
2026-05-04 15:21 3.26275 102.82676 29631 ft 449 kts 80°
2026-05-04 15:21 3.27564 102.88789 30333 ft 452 kts 80°
2026-05-04 15:22 3.28215 102.91875 30645 ft 454 kts 80°
2026-05-04 15:22 3.28870 102.94985 30955 ft 455 kts 80°
2026-05-04 15:22 3.30166 103.01131 31578 ft 457 kts 80°
2026-05-04 15:23 3.30822 103.04242 31914 ft 457 kts 80°
2026-05-04 15:23 3.31479 103.07359 32509 ft 450 kts 80°
2026-05-04 15:23 3.32118 103.10385 32900 ft 448 kts 80°
2026-05-04 15:23 3.32759 103.13432 32909 ft 451 kts 80°
2026-05-04 15:24 3.35300 103.25500 32912 ft 442 kts 80°
2026-05-04 15:25 3.36568 103.31529 32912 ft 444 kts 80°
2026-05-04 15:26 3.38421 103.40587 32911 ft 443 kts 83°
2026-05-04 15:26 3.39012 103.49789 32912 ft 442 kts 89°
2026-05-04 15:27 3.39455 103.58966 32912 ft 442 kts 89°
2026-05-04 15:28 3.39856 103.68157 32912 ft 442 kts 89°
2026-05-04 15:29 3.40245 103.77351 32912 ft 442 kts 89°
2026-05-04 15:30 3.41174 103.98807 32912 ft 442 kts 88°
2026-05-04 15:31 3.41638 104.07990 32912 ft 442 kts 89°
2026-05-04 15:32 3.42412 104.23302 32912 ft 442 kts 88°
2026-05-04 15:34 3.43187 104.38652 32912 ft 442 kts 88°
2026-05-04 15:34 3.43648 104.47819 32913 ft 445 kts 88°
2026-05-04 15:35 3.44110 104.56963 32911 ft 455 kts 88°
2026-05-04 15:36 3.44598 104.66403 32912 ft 454 kts 88°
2026-05-04 15:36 3.44921 104.72686 32912 ft 453 kts 88°
2026-05-04 15:37 3.45242 104.78945 32912 ft 453 kts 88°
2026-05-04 15:37 3.45561 104.85168 32912 ft 454 kts 88°
2026-05-04 15:38 3.45881 104.91415 32912 ft 453 kts 88°
2026-05-04 15:38 3.46202 104.97692 32912 ft 451 kts 88°
2026-05-04 15:39 3.46516 105.03845 32912 ft 449 kts 88°
2026-05-04 15:40 3.46990 105.13158 32912 ft 443 kts 88°
2026-05-04 15:40 3.47304 105.19334 32912 ft 449 kts 88°
2026-05-04 15:41 3.47620 105.25560 32912 ft 448 kts 88°
2026-05-04 15:41 3.47927 105.31624 32912 ft 447 kts 88°
2026-05-04 15:42 3.48245 105.37898 32912 ft 447 kts 88°
2026-05-04 15:42 3.48556 105.44067 32912 ft 447 kts 88°
2026-05-04 15:43 3.48867 105.50231 32912 ft 447 kts 88°
2026-05-04 15:43 3.49180 105.56445 32912 ft 447 kts 88°
2026-05-04 15:44 3.49490 105.62596 32912 ft 447 kts 88°
2026-05-04 15:44 3.49802 105.68800 32912 ft 447 kts 88°
2026-05-04 15:45 3.50114 105.75011 32912 ft 447 kts 88°
2026-05-04 15:45 3.50423 105.81180 32912 ft 447 kts 88°
2026-05-04 15:46 3.50743 105.87399 32912 ft 447 kts 88°
2026-05-04 15:46 3.51059 105.93555 32912 ft 447 kts 88°
2026-05-04 15:47 3.51377 105.99784 32912 ft 447 kts 88°
2026-05-04 15:47 3.51695 106.06011 32912 ft 447 kts 88°
2026-05-04 15:48 3.52011 106.12212 32916 ft 447 kts 88°
2026-05-04 15:48 3.52483 106.21485 32926 ft 447 kts 88°
2026-05-04 15:49 3.52799 106.27701 32933 ft 447 kts 88°
2026-05-04 15:49 3.53113 106.33894 32939 ft 447 kts 88°
2026-05-04 15:50 3.53431 106.40099 32939 ft 447 kts 88°
2026-05-04 15:50 3.53753 106.46293 32939 ft 447 kts 88°
2026-05-04 15:51 3.54073 106.52473 32939 ft 447 kts 88°
2026-05-04 15:51 3.54392 106.58649 32939 ft 447 kts 88°
2026-05-04 15:52 3.54712 106.64854 32939 ft 447 kts 88°
2026-05-04 15:52 3.55033 106.71084 32939 ft 447 kts 88°
2026-05-04 15:53 3.55352 106.77281 32939 ft 447 kts 88°
2026-05-04 15:53 3.55670 106.83478 32939 ft 447 kts 88°
2026-05-04 15:54 3.56010 106.89675 32938 ft 450 kts 86°
2026-05-04 15:54 3.57113 106.95836 32940 ft 454 kts 77°
2026-05-04 15:55 3.58702 107.01952 32939 ft 456 kts 77°
2026-05-04 15:55 3.60249 107.08070 32939 ft 457 kts 77°
2026-05-04 15:56 3.61847 107.14246 32939 ft 456 kts 77°
2026-05-04 15:56 3.63428 107.20328 32939 ft 456 kts 77°
2026-05-04 15:57 3.65033 107.26484 32939 ft 456 kts 77°
2026-05-04 15:57 3.66626 107.32581 32939 ft 456 kts 77°
2026-05-04 15:58 3.68231 107.38717 32939 ft 456 kts 77°
2026-05-04 15:58 3.69832 107.44835 32939 ft 456 kts 77°
2026-05-04 15:59 3.71438 107.50970 32939 ft 456 kts 77°
2026-05-04 15:59 3.73043 107.57102 32934 ft 456 kts 77°
2026-05-04 16:00 3.74651 107.63252 32927 ft 456 kts 77°
2026-05-04 16:00 3.76256 107.69387 32920 ft 456 kts 77°
2026-05-04 16:01 3.77854 107.75497 32913 ft 456 kts 77°
2026-05-04 16:01 3.79445 107.81582 32912 ft 456 kts 77°
2026-05-04 16:02 3.81049 107.87720 32912 ft 456 kts 77°
2026-05-04 16:03 3.83445 107.96892 32912 ft 456 kts 77°
2026-05-04 16:03 3.85042 108.03010 32912 ft 456 kts 77°
2026-05-04 16:04 3.86634 108.09108 32912 ft 456 kts 77°
2026-05-04 16:04 3.89041 108.18334 32912 ft 456 kts 77°
2026-05-04 16:05 3.90637 108.24451 32912 ft 456 kts 77°
2026-05-04 16:06 3.93034 108.33645 32912 ft 456 kts 77°
2026-05-04 16:07 3.96230 108.45910 32912 ft 456 kts 77°
2026-05-04 16:08 3.99422 108.58169 32912 ft 456 kts 77°
2026-05-04 16:09 4.03404 108.73460 32912 ft 456 kts 77°
2026-05-04 16:10 4.06618 108.85710 32912 ft 456 kts 77°
2026-05-04 16:11 4.09834 108.97984 32912 ft 456 kts 77°
2026-05-04 16:12 4.14606 109.16214 32912 ft 451 kts 76°
2026-05-04 16:13 4.17766 109.28313 32912 ft 451 kts 75°
2026-05-04 16:14 4.20936 109.40430 32912 ft 451 kts 75°
2026-05-04 16:16 4.24888 109.55559 32912 ft 451 kts 75°
2026-05-04 16:17 4.28809 109.70769 32912 ft 451 kts 75°
2026-05-04 16:18 4.31926 109.82912 32912 ft 451 kts 75°
2026-05-04 16:19 4.35818 109.98085 32912 ft 451 kts 75°
2026-05-04 16:20 4.39703 110.13241 32912 ft 451 kts 75°
2026-05-04 16:22 4.43593 110.28428 32912 ft 451 kts 75°
2026-05-04 16:23 4.48243 110.46602 32912 ft 451 kts 75°
2026-05-04 16:25 4.52904 110.64840 32912 ft 451 kts 75°
2026-05-04 16:26 4.58320 110.86054 32912 ft 451 kts 75°
2026-05-04 16:28 4.62196 111.01262 32912 ft 449 kts 76°
2026-05-04 16:29 4.67584 111.22412 32912 ft 449 kts 76°
2026-05-04 16:31 4.71430 111.37528 32912 ft 449 kts 76°
2026-05-04 16:32 4.76050 111.55705 32912 ft 449 kts 76°
2026-05-04 16:33 4.79109 111.67756 32939 ft 449 kts 76°
2026-05-04 16:35 4.86162 111.95340 32934 ft 449 kts 76°
2026-05-04 16:36 4.88249 112.03387 32928 ft 449 kts 76°
2026-05-04 16:37 4.90603 112.12464 32920 ft 449 kts 76°
2026-05-04 16:38 4.93735 112.24555 32913 ft 449 kts 76°
2026-05-04 16:39 4.97639 112.39644 32912 ft 450 kts 76°
2026-05-04 16:40 5.00791 112.51836 32912 ft 453 kts 76°
2026-05-04 16:41 5.04666 112.66837 32912 ft 456 kts 76°
2026-05-04 16:43 5.08643 112.82248 32912 ft 459 kts 76°
2026-05-04 16:43 5.11034 112.91522 32912 ft 460 kts 76°
2026-05-04 16:45 5.15824 113.10116 32912 ft 459 kts 76°
2026-05-04 16:46 5.19770 113.25452 32912 ft 460 kts 76°
2026-05-04 16:47 5.22952 113.37832 32912 ft 460 kts 76°
2026-05-04 16:48 5.26132 113.50215 32912 ft 460 kts 76°
2026-05-04 16:49 5.29319 113.62634 32912 ft 460 kts 76°
2026-05-04 16:50 5.32488 113.74998 32912 ft 460 kts 76°
2026-05-04 16:51 5.34876 113.84319 32912 ft 459 kts 76°
2026-05-04 16:52 5.38048 113.96710 32912 ft 460 kts 76°
2026-05-04 16:53 5.40428 114.06016 32912 ft 460 kts 76°
2026-05-04 16:54 5.43586 114.18392 32912 ft 459 kts 76°
2026-05-04 16:55 5.48308 114.36985 32912 ft 459 kts 76°
2026-05-04 16:56 5.52238 114.52470 32910 ft 460 kts 76°
2026-05-04 16:57 5.54602 114.61797 32902 ft 458 kts 76°
2026-05-04 16:58 5.56904 114.70880 31435 ft 450 kts 76°
2026-05-04 16:58 5.57676 114.73932 30545 ft 454 kts 76°
2026-05-04 16:59 5.59235 114.80090 28648 ft 463 kts 77°
2026-05-04 17:00 5.62446 114.92784 24770 ft 474 kts 77°
2026-05-04 17:00 5.64859 115.02328 22388 ft 469 kts 78°
2026-05-04 17:01 5.66443 115.08612 20782 ft 467 kts 73°
2026-05-04 17:01 5.68019 115.14938 19143 ft 467 kts 73°
2026-05-04 17:02 5.69743 115.21170 17439 ft 467 kts 71°
2026-05-04 17:02 5.71592 115.27172 15808 ft 433 kts 71°
2026-05-04 17:03 5.72442 115.29998 15075 ft 427 kts 72°
2026-05-04 17:03 5.73308 115.32877 14293 ft 430 kts 72°
2026-05-04 17:03 5.74512 115.38770 12685 ft 435 kts 87°
2026-05-04 17:04 5.73874 115.44736 11387 ft 428 kts 102°
2026-05-04 17:04 5.72843 115.50440 10770 ft 406 kts 101°
2026-05-04 17:05 5.71883 115.55852 10373 ft 382 kts 101°
2026-05-04 17:05 5.70965 115.60972 9704 ft 369 kts 101°
2026-05-04 17:06 5.70065 115.65983 8768 ft 351 kts 100°
2026-05-04 17:06 5.69643 115.68330 8337 ft 336 kts 100°
2026-05-04 17:07 5.68850 115.72739 7525 ft 309 kts 99°
2026-05-04 17:07 5.68599 115.74131 7269 ft 301 kts 99°
2026-05-04 17:07 5.68113 115.76836 6774 ft 295 kts 99°
2026-05-04 17:07 5.67750 115.78851 6401 ft 294 kts 99°
2026-05-04 17:08 5.67389 115.80855 6034 ft 293 kts 99°
2026-05-04 17:08 5.66664 115.84881 5266 ft 293 kts 99°
2026-05-04 17:08 5.66304 115.86883 4931 ft 290 kts 99°
2026-05-04 17:09 5.65947 115.88858 4817 ft 279 kts 99°
2026-05-04 17:09 5.65671 115.90739 4717 ft 266 kts 89°
2026-05-04 17:09 5.66053 115.92471 4608 ft 249 kts 58°
2026-05-04 17:10 5.68562 115.94566 4092 ft 233 kts 20°
2026-05-04 17:10 5.72840 115.96328 3550 ft 206 kts 20°
2026-05-04 17:11 5.74118 115.96851 3400 ft 190 kts 20°
2026-05-04 17:11 5.75277 115.97340 3225 ft 174 kts 20°
2026-05-04 17:11 5.77298 115.98189 2972 ft 153 kts 20°
2026-05-04 17:12 5.78282 115.98605 2806 ft 153 kts 21°
2026-05-04 17:12 5.80208 115.99417 2499 ft 148 kts 21°
2026-05-04 17:13 5.83036 116.00607 1913 ft 146 kts 21°
2026-05-04 17:14 5.85856 116.01800 1314 ft 147 kts 22°
2026-05-04 17:14 5.86794 116.02196 1116 ft 147 kts 22°
2026-05-04 17:14 5.88670 116.02988 720 ft 147 kts 22°
2026-05-04 17:15 5.89620 116.03390 521 ft 147 kts 22°
2026-05-04 17:15 5.91497 116.04185 134 ft 147 kts 24°
2026-05-04 17:16 5.93169 116.04892 15 ft 88 kts 22°
2026-05-04 17:16 5.93666 116.05225 15 ft 12 kts 137°
2026-05-04 17:17 5.93589 116.05246 15 ft 13 kts 188°
2026-05-04 17:17 5.93360 116.05156 15 ft 9 kts 202°
2026-05-04 17:18 5.93302 116.05132 15 ft 9 kts 203°
2026-05-04 17:18 5.93077 116.05034 15 ft 27 kts 203°
2026-05-04 17:19 5.92767 116.04905 15 ft 20 kts 203°
2026-05-04 17:19 5.92525 116.04801 15 ft 16 kts 202°
2026-05-04 17:20 5.92378 116.04830 15 ft 10 kts 136°
2026-05-04 17:20 5.92272 116.04879 15 ft 6 kts 159°
2026-05-04 17:20 5.92247 116.04900 15 ft 3 kts 82°
2026-05-04 17:21 5.92265 116.04945 15 ft 3 kts 68°
2026-05-04 17:21 5.92274 116.04967 15 ft 0 kts 68°